7 * 24
多渠道服务支持
NINGXIA-1 2号卫星是中国宁夏回族自治区研制的一颗遥感卫星,主要用于国土资源调查、环境监测和农业资源管理等领域。该卫星具备高分辨率成像能力,能够提供清晰的地表图像,支持地方经济发展与生态保护。卫星采用先进的光学遥感技术,具有较高的数据精度和稳定性。其成功发射和运行,标志着宁夏在航天科技应用方面迈出了重要一步,也为区域可持续发展提供了有力支撑。
中国
(CN)
| 数据来源 | 国际轨道数据 |
| 星历时间: | 2025-12-15T15:41:13+0800 17小时前 查看轨道信息 |
| 半长轴: | 7264.944km |
| 偏心率: | 0.0007671 |
| 轨道倾角: | 45.009° |
| 近地点辐角 | 350.129° |
| 升交点赤经 | 281.819° |
| 平近点角 | 9.939° |
| 近地点: | 881.236km |
| 远地点: | 892.382km |
| 周期: | 102.709分钟 |
| 每日圈数: | 14.020205 |